Date,TemperatureHighF,TemperatureAvgF,TemperatureLowF,DewpointHighF,DewpointAvgF,DewpointLowF,HumidityHigh,HumidityAvg,HumidityLow,PressureMaxIn,PressureMinIn,WindSpeedMaxMPH,WindSpeedAvgMPH,GustSpeedMaxMPH,PrecipitationSumIn
2013-2-1,75.4,64.5,55.8,-31.6,-38.1,-43.4,1,1,1,30.12,30.04,7,2,0,0.00
2013-2-2,74.8,66.1,57.9,60.4,-34.3,-42.1,98,4,1,30.15,30.05,5,1,0,0.00
2013-2-3,76.8,63.8,53.4,70.6,-30.7,-44.9,98,7,1,30.10,29.95,8,2,0,0.00
2013-2-4,70.0,58.3,50.7,60.0,-40.2,-46.5,98,2,1,30.06,29.92,8,2,0,0.00
2013-2-5,60.6,54.6,52.9,57.5,-39.1,-45.2,98,6,1,30.08,29.95,5,2,0,0.00
2013-2-6,64.6,55.9,49.6,54.3,-27.8,-47.2,98,15,1,30.08,29.97,9,2,0,0.00
2013-2-7,61.3,53.6,48.4,52.9,-39.5,-47.9,98,6,1,30.11,29.96,12,2,0,0.00
2013-2-8,54.1,48.4,41.9,51.8,-38.0,-51.9,98,10,1,29.97,29.85,14,4,0,0.14
2013-2-9,61.0,48.2,39.7,59.6,-45.0,-53.3,98,4,1,30.08,29.90,10,2,0,0.00
2013-2-10,59.4,49.5,43.7,-41.2,-47.3,-50.8,1,1,1,30.08,29.98,7,1,0,0.00
2013-2-11,71.6,52.1,42.1,61.5,-16.9,-51.7,98,28,1,30.20,30.02,14,2,0,0.00
2013-2-12,67.1,55.0,44.8,66.5,-6.0,-50.1,98,36,1,30.31,30.20,11,2,0,0.00
2013-2-13,68.4,56.6,44.8,67.8,-5.7,-50.1,98,36,1,30.23,30.09,6,2,0,0.00
2013-2-14,75.0,58.8,45.9,74.4,-7.0,-49.5,98,33,1,30.17,30.00,10,2,0,0.00
2013-2-15,89.6,74.2,60.4,59.8,-29.8,-37.8,98,3,1,30.15,30.05,8,2,0,0.00
2013-2-16,72.5,64.4,58.6,-33.3,-38.2,-41.7,1,1,1,30.09,29.91,3,0,0,0.00
2013-2-17,68.9,57.1,51.3,66.5,-18.7,-46.2,98,22,1,29.99,29.87,12,5,0,0.00
2013-2-18,65.3,55.5,49.8,63.6,-36.9,-47.1,98,6,1,30.04,29.91,10,4,0,0.00
2013-2-19,54.3,51.1,44.6,48.8,-34.6,-50.3,98,12,1,29.92,29.68,14,6,0,0.31
2013-2-20,61.7,50.3,41.0,61.1,-8.6,-52.5,98,36,1,29.97,29.67,18,6,0,0.00
2013-2-21,72.0,52.2,44.4,66.0,-39.6,-50.4,98,7,1,30.06,29.93,6,1,0,0.00
2013-2-22,67.5,58.0,44.4,65.8,15.4,-50.4,98,53,1,30.16,30.06,12,2,0,0.00
2013-2-23,66.6,56.4,45.5,64.0,13.1,-49.7,98,53,1,30.09,29.88,9,3,0,0.00
2013-2-24,76.5,61.2,49.5,-30.9,-40.2,-47.3,1,1,1,30.16,29.94,9,3,0,0.00
2013-2-25,68.5,55.8,47.7,55.5,-30.7,-48.4,98,12,1,30.18,30.03,7,2,0,0.00
2013-2-26,60.6,53.1,44.6,46.4,-24.7,-49.8,98,22,1,30.07,29.98,3,1,0,0.00
2013-2-27,66.2,59.0,55.2,55.3,-39.5,-43.8,98,3,1,30.21,30.07,4,1,0,0.00
2013-2-28,75.2,60.5,52.0,-31.7,-40.6,-45.7,1,1,1,30.26,30.18,7,1,0,0.00